GW0634 Weather Reports


time (UTC)temp
F
wind
direction
speed
knots
gust
knots
rain 1hr
in
rain 24hr
in
rain mn
in
humidity
%
barometer
mb
20260510164215 57 82 7.0 7.8 0.00 0.00 0.00 59 896.4
20260510163710 57 45 0.9 0.9 0.00 0.00 0.00 60 896.5
20260510163206 56 333 2.6 5.2 0.00 0.00 0.00 61 896.5
20260510162705 57 155 4.3 6.1 0.00 0.00 0.00 59 896.4
20260510162203 56 100 4.3 6.1 0.00 0.00 0.00 61 896.3
20260510161658 55 40 0.9 1.7 0.00 0.00 0.00 63 896.4
20260510161155 55 7 4.3 7.0 0.00 0.00 0.00 64 896.5
20260510160652 55 60 2.6 4.3 0.00 0.00 0.00 62 896.3
20260510160147 57 133 3.5 7.0 0.00 0.00 0.00 61 896.3
20260510155643 56 73 0.9 1.7 0.00 0.00 0.00 61 896.5
20260510155139 55 339 4.3 6.1 0.00 0.00 0.00 62 896.4
20260510154635 55 29 1.7 4.3 0.00 0.00 0.00 64 896.2
20260510154131 54 27 3.5 4.3 0.00 0.00 0.00 66 896.1
20260510153626 54 91 2.6 4.3 0.00 0.00 0.00 66 896.4
20260510153123 54 120 2.6 4.3 0.00 0.00 0.00 66 896.4
20260510152620 53 321 0.9 2.6 0.00 0.00 0.00 68 896.2
20260510152116 53 60 4.3 6.1 0.00 0.00 0.00 68 896.0
20260510151613 52 97 0.9 1.7 0.00 0.00 0.00 69 895.9
20260510151111 52 224 5.2 7.0 0.00 0.00 0.00 70 896.0
20260510150606 52 3 4.3 7.0 0.00 0.00 0.00 70 895.7
20260510145559 52 0 3.5 5.2 0.00 0.00 0.00 71 895.8
20260510145055 52 18 2.6 2.6 0.00 0.00 0.00 71 895.7
20260510144552 52 339 2.6 4.3 0.00 0.00 0.00 71 895.7
20260510144048 51 14 3.5 4.3 0.00 0.00 0.00 71 895.7
20260510143543 51 320 2.6 4.3 0.00 0.00 0.00 72 895.8
20260510143040 51 333 3.5 5.2 0.00 0.00 0.00 72 895.7
20260510142537 51 10 2.6 2.6 0.00 0.00 0.00 72 895.6
20260510142033 51 352 4.3 5.2 0.00 0.00 0.00 71 895.7
20260510141530 51 354 3.5 5.2 0.00 0.00 0.00 70 895.6
20260510141028 51 41 2.6 4.3 0.00 0.00 0.00 69 895.4
20260510140524 51 291 5.2 6.1 0.00 0.00 0.00 69 895.3
20260510140023 51 38 4.3 7.0 0.00 0.00 0.00 69 895.4
20260510135519 52 139 2.6 4.3 0.00 0.00 0.00 68 895.5
20260510135016 51 250 4.3 6.1 0.00 0.00 0.00 68 895.2
20260510134513 51 316 7.0 11.3 0.00 0.00 0.00 68 895.3
20260510134010 51 348 4.3 5.2 0.00 0.00 0.00 69 894.9
20260510133505 50 314 5.2 7.8 0.00 0.00 0.00 70 894.8
20260510133002 50 270 5.2 6.1 0.00 0.00 0.00 70 894.9
20260510132459 50 331 4.3 7.0 0.00 0.00 0.00 70 894.7
20260510131955 50 83 7.0 9.6 0.00 0.00 0.00 69 894.8
20260510131454 50 357 4.3 6.1 0.00 0.00 0.00 69 894.5
20260510130950 50 291 5.2 7.8 0.00 0.00 0.00 69 894.6
20260510130446 50 323 3.5 6.1 0.00 0.00 0.00 69 894.5
20260510125944 50 8 5.2 7.8 0.00 0.00 0.00 69 894.6
20260510125440 50 338 3.5 6.1 0.00 0.00 0.00 69 894.5
20260510124937 50 28 0.9 1.7 0.00 0.00 0.00 69 894.3
20260510124433 50 4 6.1 8.7 0.00 0.00 0.00 70 894.1
20260510123930 50 80 4.3 6.1 0.00 0.00 0.00 70 894.4
20260510123426 50 331 6.1 8.7 0.00 0.00 0.00 70 894.3
20260510122922 50 337 5.2 7.8 0.00 0.00 0.00 70 894.2
20260510122417 50 17 1.7 2.6 0.00 0.00 0.00 70 894.0
20260510121913 50 42 1.7 1.7 0.00 0.00 0.00 70 894.1
20260510121411 50 116 3.5 5.2 0.00 0.00 0.00 70 894.0
20260510120908 50 332 5.2 9.6 0.00 0.00 0.00 70 894.0
20260510120405 50 317 4.3 5.2 0.00 0.00 0.00 70 893.8
20260510115901 50 5 4.3 7.8 0.00 0.00 0.00 70 893.6
20260510115357 49 4 3.5 6.1 0.00 0.00 0.00 71 893.9
20260510114854 49 333 3.5 5.2 0.00 0.00 0.00 71 893.5
20260510114351 49 25 3.5 6.1 0.00 0.00 0.00 71 893.7
20260510113852 49 122 2.6 4.3 0.00 0.00 0.00 71 893.5
20260510113347 49 348 1.7 2.6 0.00 0.00 0.00 72 893.4
20260510112844 49 1 3.5 7.0 0.00 0.00 0.00 72 893.5
20260510112342 49 1 4.3 6.1 0.00 0.00 0.00 72 893.3
20260510111837 49 33 2.6 2.6 0.00 0.00 0.00 72 893.5
20260510111334 49 251 3.5 6.1 0.00 0.00 0.00 72 893.0
20260510110833 49 42 1.7 4.3 0.00 0.00 0.00 72 893.3
20260510110332 50 57 3.5 5.2 0.00 0.00 0.00 72 893.2
20260510105828 50 28 3.5 4.3 0.00 0.00 0.00 72 893.2
20260510105328 50 23 2.6 2.6 0.00 0.00 0.00 72 893.2
20260510104824 50 11 2.6 4.3 0.00 0.00 0.00 72 893.2
20260510104321 50 298 2.6 5.2 0.00 0.00 0.00 72 892.9
20260510103817 50 15 3.5 5.2 0.00 0.00 0.00 72 893.0
20260510103314 50 218 3.5 5.2 0.00 0.00 0.00 72 892.9
20260510102810 50 359 3.5 6.1 0.00 0.00 0.00 72 892.5
20260510102306 50 200 4.3 7.0 0.00 0.00 0.00 72 892.3
20260510101803 49 36 4.3 6.1 0.00 0.00 0.00 73 892.2
20260510101301 49 26 4.3 8.7 0.00 0.00 0.00 73 892.1
20260510100757 49 99 4.3 6.1 0.00 0.00 0.00 73 891.7
20260510100255 49 28 2.6 5.2 0.00 0.00 0.00 72 891.4
20260510095750 50 353 4.3 5.2 0.00 0.00 0.00 72 891.3
20260510095245 50 314 4.3 7.0 0.00 0.00 0.00 72 891.1
20260510094744 50 321 7.8 12.2 0.00 0.00 0.00 71 891.0
20260510094240 50 329 4.3 7.0 0.00 0.00 0.00 71 891.2
20260510093736 50 353 6.1 7.8 0.00 0.00 0.00 71 891.3
20260510093234 50 315 6.1 7.8 0.00 0.00 0.00 70 891.3
20260510092730 50 30 2.6 4.3 0.00 0.00 0.00 70 891.5
20260510092226 51 20 4.3 6.1 0.00 0.00 0.00 70 891.7
20260510091721 51 37 3.5 6.1 0.00 0.00 0.00 70 891.8
20260510091218 51 15 5.2 7.0 0.00 0.00 0.00 70 891.9
20260510090715 51 144 2.6 4.3 0.00 0.00 0.00 70 892.0
20260510090212 51 25 6.1 9.6 0.00 0.00 0.00 70 891.8
20260510085706 51 341 4.3 5.2 0.00 0.00 0.00 69 892.0
20260510085202 51 31 1.7 1.7 0.00 0.00 0.00 70 891.6
20260510084658 52 38 0.0 0.9 0.00 0.00 0.00 70 891.4
20260510084155 52 343 3.5 6.1 0.00 0.00 0.00 69 891.3
20260510083652 53 72 5.2 11.3 0.00 0.00 0.00 68 891.3
20260510083149 53 357 5.2 7.8 0.00 0.00 0.00 69 891.1
20260510082645 53 282 4.3 5.2 0.00 0.00 0.00 67 890.9
20260510082141 54 347 6.1 12.2 0.00 0.00 0.00 66 891.0
20260510081635 54 92 6.1 13.0 0.00 0.00 0.00 65 890.8
20260510081132 54 29 6.1 7.8 0.00 0.00 0.00 65 891.0
20260510080631 54 16 7.8 13.0 0.00 0.00 0.00 66 890.7
20260510080128 54 8 7.0 8.7 0.00 0.00 0.00 65 890.5
20260510075625 54 295 6.1 9.6 0.00 0.00 0.00 66 890.6
20260510075122 55 332 7.0 8.7 0.00 0.00 0.00 64 890.6
20260510074619 55 19 6.1 12.2 0.00 0.00 0.00 64 890.5
20260510074115 56 295 4.3 7.0 0.00 0.00 0.00 64 890.1
20260510073611 57 342 3.5 5.2 0.00 0.00 0.00 62 890.2
20260510073109 57 31 3.5 5.2 0.00 0.00 0.00 62 890.1
20260510072605 57 280 4.3 7.0 0.00 0.00 0.00 61 890.0
20260510072101 57 104 6.1 7.8 0.00 0.00 0.00 61 889.9
20260510071557 57 342 3.5 5.2 0.00 0.00 0.00 60 890.1
20260510071055 57 141 5.2 7.8 0.00 0.00 0.00 59 889.6
20260510070552 57 115 2.6 4.3 0.00 0.00 0.00 57 889.3
20260510070049 57 33 2.6 4.3 0.00 0.00 0.00 55 889.3
20260510065545 57 236 0.0 0.9 0.00 0.00 0.00 53 889.2
20260510065041 57 273 0.9 0.9 0.00 0.00 0.00 53 888.7
20260510064538 57 145 0.0 0.0 0.00 0.00 0.00 52 888.8
20260510064034 58 159 0.0 0.0 0.00 0.00 0.00 52 888.5
20260510063531 58 100 0.0 0.0 0.00 0.00 0.00 50 888.4
20260510063029 58 186 0.0 0.0 0.00 0.00 0.00 50 888.1
20260510062524 59 148 0.0 0.0 0.00 0.00 0.00 49 887.9
20260510062019 59 65 1.7 4.3 0.00 0.00 0.00 49 887.6
20260510061516 59 147 0.0 0.0 0.00 0.00 0.00 47 887.7
20260510061013 59 212 0.0 0.0 0.00 0.00 0.00 47 887.8
20260510060510 60 161 0.0 0.9 0.00 0.00 0.00 46 887.4
20260510060006 60 186 0.0 0.0 0.00 0.00 0.00 45 887.2
20260510055502 61 106 0.0 0.0 0.00 0.00 0.00 44 887.3
20260510055000 61 143 0.0 0.9 0.00 0.00 0.00 43 887.4
20260510054455 61 132 0.0 0.0 0.00 0.00 0.00 43 887.2
20260510053950 62 98 0.0 0.0 0.00 0.00 0.00 42 887.2
20260510053446 62 39 0.0 0.9 0.00 0.00 0.00 41 887.5
20260510052942 62 18 0.0 0.0 0.00 0.00 0.00 41 887.8
20260510052438 62 70 0.0 0.9 0.00 0.00 0.00 42 887.7
20260510051935 63 337 0.9 4.3 0.00 0.00 0.00 41 887.9
20260510051431 64 40 0.9 1.7 0.00 0.00 0.00 40 887.9
20260510050927 64 36 1.7 2.6 0.00 0.00 0.00 39 887.8
20260510050424 64 130 0.0 0.0 0.00 0.00 0.00 39 888.1
20260510045921 65 46 0.0 0.0 0.00 0.00 0.00 38 888.1
20260510045419 65 180 2.6 4.3 0.00 0.00 0.00 37 887.8
20260510044915 66 354 0.9 2.6 0.00 0.00 0.00 37 888.2
20260510044412 66 179 3.5 7.0 0.00 0.00 0.00 37 888.1
20260510043909 67 275 5.2 7.8 0.00 0.00 0.00 35 888.1
20260510043405 68 173 0.9 0.9 0.00 0.00 0.00 33 887.8
20260510042903 68 228 2.6 4.3 0.00 0.00 0.00 33 887.8
20260510042359 68 300 4.3 7.0 0.00 0.00 0.00 32 887.6
20260510041855 69 358 4.3 6.1 0.00 0.00 0.00 30 887.6
20260510041352 69 60 0.0 0.9 0.00 0.00 0.00 31 887.8
20260510040849 69 23 1.7 4.3 0.00 0.00 0.00 30 887.6
20260510040346 69 63 0.0 0.0 0.00 0.00 0.00 31 887.8
20260510035842 69 259 0.9 1.7 0.00 0.00 0.00 30 887.6
20260510035338 69 324 0.9 1.7 0.00 0.00 0.00 29 887.5
20260510034833 70 141 0.0 0.0 0.00 0.00 0.00 29 887.3
20260510034332 70 284 0.0 0.9 0.00 0.00 0.00 27 887.3
20260510033828 71 76 0.0 0.9 0.00 0.00 0.00 28 887.0
20260510033325 71 41 0.0 0.9 0.00 0.00 0.00 26 887.0
20260510032821 71 168 0.0 0.9 0.00 0.00 0.00 27 886.8
20260510032318 72 6 4.3 6.1 0.00 0.00 0.00 26 886.6
20260510031814 72 324 4.3 6.1 0.00 0.00 0.00 24 886.9
20260510031309 73 226 0.0 0.0 0.00 0.00 0.00 25 886.7
20260510030803 71 24 3.5 6.1 0.00 0.00 0.00 26 886.9
20260510030300 72 79 0.0 0.9 0.00 0.00 0.00 26 886.8
20260510025757 72 318 3.5 4.3 0.00 0.00 0.00 26 887.0
20260510025255 73 326 0.9 2.6 0.00 0.00 0.00 25 886.9
20260510024751 72 335 4.3 7.8 0.00 0.00 0.00 25 886.9
20260510024249 71 341 5.2 8.7 0.00 0.00 0.00 27 886.6
20260510023744 72 300 1.7 1.7 0.00 0.00 0.00 27 886.5
20260510023241 73 0 1.7 4.3 0.00 0.00 0.00 25 886.3
20260510022737 75 334 0.9 1.7 0.00 0.00 0.00 22 886.1
20260510022232 76 308 0.0 0.9 0.00 0.00 0.00 20 885.9
20260510021726 76 279 0.9 6.1 0.00 0.00 0.00 19 885.5
20260510021225 74 53 0.0 1.7 0.00 0.00 0.00 20 885.4
20260510020725 71 270 0.0 0.9 0.00 0.00 0.00 28 885.7
20260510020220 71 218 0.0 0.0 0.00 0.00 0.00 28 885.4
20260510015716 71 216 0.0 0.0 0.00 0.00 0.00 27 885.3
20260510015212 72 224 0.0 0.0 0.00 0.00 0.00 26 885.2
20260510014707 72 230 0.0 0.0 0.00 0.00 0.00 27 885.1
20260510014205 71 197 0.0 0.0 0.00 0.00 0.00 27 884.9
20260510013700 71 192 0.0 0.0 0.00 0.00 0.00 26 884.7
20260510013156 72 192 0.0 0.0 0.00 0.00 0.00 26 884.5
20260510012656 72 192 0.0 0.0 0.00 0.00 0.00 27 884.7
20260510012151 73 192 0.0 0.0 0.00 0.00 0.00 25 884.5
20260510011647 73 192 0.0 0.0 0.00 0.00 0.00 24 884.5
20260510011142 73 179 0.0 0.0 0.00 0.00 0.00 25 884.7
20260510010638 73 166 0.0 0.0 0.00 0.00 0.00 26 884.4
20260510010136 73 144 0.0 0.0 0.00 0.00 0.00 24 884.1
20260510005631 73 137 0.0 0.0 0.00 0.00 0.00 25 884.5
20260510005129 74 125 0.0 0.0 0.00 0.00 0.00 25 884.3
20260510004627 74 121 0.0 0.0 0.00 0.00 0.00 25 884.1
20260510004125 75 126 0.0 0.0 0.00 0.00 0.00 25 884.1
20260510003622 75 171 0.0 0.0 0.00 0.00 0.00 24 884.2
20260510003118 75 166 0.0 0.0 0.00 0.00 0.00 23 884.2
20260510002612 75 138 0.0 0.0 0.00 0.00 0.00 23 884.4
20260510002109 75 125 0.0 0.0 0.00 0.00 0.00 22 884.4
20260510001606 75 134 2.6 4.3 0.00 0.00 0.00 22 884.5
20260510001106 76 127 1.7 2.6 0.00 0.00 0.00 22 884.6
20260510000605 76 136 1.7 2.6 0.00 0.00 0.00 21 884.6
20260509235559 77 156 0.9 1.7 0.00 0.00 0.00 22 884.9
20260509235056 77 124 4.3 7.8 0.00 0.00 0.00 21 884.8
20260509234552 76 128 0.0 0.0 0.00 0.00 0.00 20 885.1
20260509234050 76 109 6.1 7.8 0.00 0.00 0.00 20 885.4
20260509233547 78 261 6.1 8.7 0.00 0.00 0.00 19 884.9
20260509233044 78 259 2.6 2.6 0.00 0.00 0.00 18 884.9
20260509232541 78 215 9.6 12.2 0.00 0.00 0.00 18 884.5
20260509232038 79 235 0.0 0.0 0.00 0.00 0.00 18 884.6
20260509231533 79 349 2.6 4.3 0.00 0.00 0.00 17 884.5
20260509231032 80 313 0.9 2.6 0.00 0.00 0.00 18 884.1
20260509230528 80 94 0.0 0.0 0.00 0.00 0.00 18 884.2
20260509230025 80 137 0.0 0.0 0.00 0.00 0.00 18 883.9
20260509225520 80 263 0.0 0.0 0.00 0.00 0.00 17 884.0
20260509225016 81 136 0.0 0.0 0.00 0.00 0.00 18 883.9
20260509224512 81 309 0.9 1.7 0.00 0.00 0.00 17 883.9
20260509224009 83 131 3.5 5.2 0.00 0.00 0.00 16 883.9
20260509223506 83 60 1.7 4.3 0.00 0.00 0.00 17 884.0
20260509223004 84 208 1.7 1.7 0.00 0.00 0.00 18 883.8
20260509222459 84 168 0.0 0.9 0.00 0.00 0.00 17 883.9
20260509221955 86 255 3.5 5.2 0.00 0.00 0.00 17 884.0
20260509221451 85 131 0.0 0.0 0.00 0.00 0.00 17 884.1
20260509220948 85 223 0.0 0.0 0.00 0.00 0.00 18 883.9
20260509220444 82 156 0.0 0.0 0.00 0.00 0.00 17 883.9
20260509215939 82 142 1.7 2.6 0.00 0.00 0.00 19 884.0
20260509215435 80 151 2.6 5.2 0.00 0.00 0.00 18 884.2
20260509214933 79 225 0.0 0.9 0.00 0.00 0.00 19 884.4
20260509214430 78 252 9.6 12.2 0.00 0.00 0.00 19 884.6
20260509213927 76 280 12.2 17.4 0.00 0.00 0.00 20 884.5
20260509213422 77 274 7.8 9.6 0.00 0.00 0.00 21 884.5
20260509212920 79 224 2.6 5.2 0.00 0.00 0.00 17 884.5
20260509212418 80 250 0.9 1.7 0.00 0.00 0.00 16 884.6
20260509211914 81 350 1.7 2.6 0.00 0.00 0.00 16 884.4
20260509211410 81 328 0.9 2.6 0.00 0.00 0.00 17 884.3
20260509210906 82 293 2.6 4.3 0.00 0.00 0.00 16 884.3
20260509210403 83 225 0.9 1.7 0.00 0.00 0.00 16 884.2
20260509205858 86 265 5.2 6.1 0.00 0.00 0.00 15 884.3
20260509205352 85 239 2.6 2.6 0.00 0.00 0.00 16 884.4
20260509204849 86 312 4.3 7.0 0.00 0.00 0.00 17 884.2
20260509204346 85 302 2.6 2.6 0.00 0.00 0.00 15 884.2
20260509203842 86 229 0.0 0.9 0.00 0.00 0.00 16 884.3
20260509203338 86 343 4.3 5.2 0.00 0.00 0.00 16 884.4
20260509202835 85 322 2.6 2.6 0.00 0.00 0.00 18 884.4
20260509202331 86 337 3.5 7.0 0.00 0.00 0.00 16 884.7
20260509201831 84 348 1.7 2.6 0.00 0.00 0.00 16 884.5
20260509201328 86 336 2.6 4.3 0.00 0.00 0.00 16 884.5
20260509200824 86 314 4.3 6.1 0.00 0.00 0.00 16 884.6
20260509200320 84 137 0.0 0.0 0.00 0.00 0.00 17 884.6
20260509195817 85 235 0.0 0.9 0.00 0.00 0.00 18 884.9
20260509195317 86 285 1.7 2.6 0.00 0.00 0.00 17 884.9
20260509194817 85 296 2.6 2.6 0.00 0.00 0.00 17 884.9
20260509194313 84 298 5.2 7.0 0.00 0.00 0.00 17 884.9
20260509193810 81 280 0.9 2.6 0.00 0.00 0.00 18 884.9
20260509193309 81 89 0.0 0.9 0.00 0.00 0.00 20 884.9
20260509192806 81 127 0.0 0.0 0.00 0.00 0.00 19 884.9
20260509192305 81 229 0.0 0.0 0.00 0.00 0.00 19 884.8
20260509191757 83 185 0.0 0.0 0.00 0.00 0.00 19 884.9
20260509191253 84 328 0.9 1.7 0.00 0.00 0.00 18 884.9
20260509190749 80 255 0.0 0.0 0.00 0.00 0.00 19 885.1
20260509190247 84 294 0.9 1.7 0.00 0.00 0.00 18 885.2
20260509185744 84 202 4.3 6.1 0.00 0.00 0.00 20 885.1
20260509185240 84 32 2.6 5.2 0.00 0.00 0.00 21 885.2
20260509184738 82 202 0.0 0.0 0.00 0.00 0.00 22 885.4
20260509184235 81 225 4.3 5.2 0.00 0.00 0.00 21 885.4
20260509183731 80 172 0.0 0.0 0.00 0.00 0.00 24 885.5
20260509183226 81 246 0.9 2.6 0.00 0.00 0.00 22 885.4
20260509182722 81 221 7.8 8.7 0.00 0.00 0.00 22 885.5
20260509182220 81 263 3.5 5.2 0.00 0.00 0.00 24 885.7
20260509181717 82 253 4.3 6.1 0.00 0.00 0.00 23 885.9
20260509181215 82 230 1.7 4.3 0.00 0.00 0.00 23 885.8
20260509180712 82 353 6.1 7.8 0.00 0.00 0.00 23 885.8
20260509180208 80 212 7.0 8.7 0.00 0.00 0.00 24 886.1
20260509175704 79 243 5.2 7.8 0.00 0.00 0.00 23 886.1
20260509175201 78 260 7.0 8.7 0.00 0.00 0.00 25 886.1
20260509174656 79 262 7.8 9.6 0.00 0.00 0.00 26 886.3
20260509174151 78 290 6.1 8.7 0.00 0.00 0.00 27 886.6
20260509173648 78 264 5.2 7.8 0.00 0.00 0.00 27 886.6
20260509173143 77 262 9.6 11.3 0.00 0.00 0.00 28 886.5
20260509172640 76 239 5.2 7.8 0.00 0.00 0.00 29 886.5
20260509172136 76 263 7.8 8.7 0.00 0.00 0.00 30 886.6
20260509171632 75 260 7.8 8.7 0.00 0.00 0.00 30 886.6
20260509171128 76 185 6.1 8.7 0.00 0.00 0.00 29 886.6
20260509170625 75 228 2.6 5.2 0.00 0.00 0.00 31 886.8
20260509170121 74 229 4.3 5.2 0.00 0.00 0.00 32 886.8
20260509165619 74 235 5.2 6.1 0.00 0.00 0.00 31 886.8
20260509165115 74 267 7.8 11.3 0.00 0.00 0.00 31 887.0